Weather History for LICA - October, 2011

Change the Weather History Date:

Tuesday, October 18, 2011

  Actual Average Record
Temperature  
Mean Temperature 54 °F -  
Max Temperature 66 °F 66 °F 79 °F (2014)
Min Temperature 41 °F 51 °F 41 °F (2011)
Degree Days  
Heating Degree Days 12    
Growing Degree Days 4 (Base 50)    
Moisture  
Dew Point 43 °F    
Average Humidity 68    
Maximum Humidity 87    
Minimum Humidity 46    
Precipitation  
Precipitation 0.00 in - - ()
Sea Level Pressure  
Sea Level Pressure 30.23 in    
Wind  
Wind Speed 6 mph ()    
Max Wind Speed 15 mph    
Max Gust Speed -    
Visibility 6.2 miles    
Events      
Averages and records for this station are not official NWS values.
T = Trace of Precipitation, MM = Missing Value Source: Averaged Metar Reports

Daily Weather History Graph

Daily Weather History Graph

Search for Another Location

Airport or City:

Trip Planner

Search our weather history database for the weather conditions in past years. The results will help you decide how hot, cold, wet, or windy it might be!

Date:

Astronomy

Oct. 18, 2011 Rise Set
Actual Time 7:06 AM CEST 6:13 PM CEST
Civil Twilight 6:39 AM CEST 6:39 PM CEST
Nautical Twilight 6:08 AM CEST 7:10 PM CEST
Astronomical Twilight 5:38 AM CEST 7:41 PM CEST
Moon 10:37 PM CEST (10/18) 12:43 PM CEST (10/18)
Length of Visible Light 11h 59m
Length of Day
11h 06m
Waning Gibbous, 67% of the Moon is Illuminated
Oct 18
Waning Gibbous
Oct 20
Last Quarter
Oct 26
New
Nov 2
First Quarter
Nov 10
Full

Hourly Weather History & Observations

Time (CEST) Temp. Windchill Dew Point Humidity Pressure Visibility Wind Dir Wind Speed Gust Speed Precip Events Conditions
12:50 AM 44.6 °F 42.2 °F 37.4 °F 76% 30.18 in - East 4.6 mph - N/A   Clear
1:50 AM 42.8 °F 38.6 °F 37.4 °F 81% 30.18 in - East 6.9 mph - N/A   Clear
2:50 AM 42.8 °F 38.6 °F 35.6 °F 76% 30.18 in - East 6.9 mph - N/A   Clear
3:50 AM 42.8 °F 39.3 °F 37.4 °F 81% 30.18 in - East 5.8 mph - N/A   Clear
4:50 AM 41.0 °F 37.1 °F 35.6 °F 81% 30.18 in 6.2 mi East 5.8 mph - N/A   Partly Cloudy
5:50 AM 41.0 °F 37.1 °F 35.6 °F 81% 30.18 in 6.2 mi East 5.8 mph - N/A   Partly Cloudy
6:50 AM 41.0 °F 37.1 °F 35.6 °F 81% 30.21 in 6.2 mi East 5.8 mph - N/A   Partly Cloudy
7:50 AM 42.8 °F 39.3 °F 39.2 °F 87% 30.21 in 6.2 mi East 5.8 mph - N/A   Partly Cloudy
8:50 AM 50.0 °F - 42.8 °F 76% 30.21 in - East 5.8 mph - N/A   Clear
9:50 AM 57.2 °F - 46.4 °F 67% 30.24 in - East 5.8 mph - N/A   Clear
10:50 AM 64.4 °F - 44.6 °F 49% 30.24 in - Variable 1.2 mph - N/A   Clear
11:50 AM 64.4 °F - 46.4 °F 52% 30.24 in 6.2 mi WSW 6.9 mph - N/A   Partly Cloudy
12:50 PM 66.2 °F - 46.4 °F 49% 30.27 in 6.2 mi West 9.2 mph - N/A   Partly Cloudy
1:50 PM 66.2 °F - 44.6 °F 46% 30.24 in 6.2 mi West 12.7 mph - N/A   Partly Cloudy
2:50 PM 66.2 °F - 44.6 °F 46% 30.21 in 6.2 mi West 15.0 mph - N/A   Partly Cloudy
3:50 PM 66.2 °F - 46.4 °F 49% 30.24 in 6.2 mi West 13.8 mph - N/A   Partly Cloudy
4:50 PM 64.4 °F - 48.2 °F 56% 30.24 in 6.2 mi West 12.7 mph - N/A   Partly Cloudy
5:50 PM 62.6 °F - 48.2 °F 59% 30.24 in 6.2 mi West 10.4 mph - N/A   Partly Cloudy
6:50 PM 60.8 °F - 46.4 °F 59% 30.24 in 6.2 mi WNW 8.1 mph - N/A   Partly Cloudy
7:50 PM 59.0 °F - 46.4 °F 63% 30.27 in 6.2 mi WNW 6.9 mph - N/A   Partly Cloudy
8:50 PM 57.2 °F - 46.4 °F 67% 30.27 in 6.2 mi Variable 3.5 mph - N/A   Partly Cloudy
9:50 PM 50.0 °F - 42.8 °F 76% 30.27 in 6.2 mi East 5.8 mph - N/A   Partly Cloudy
10:50 PM 50.0 °F - 44.6 °F 82% 30.27 in 6.2 mi East 4.6 mph - N/A   Partly Cloudy
11:50 PM 48.2 °F - 42.8 °F 82% 30.27 in 6.2 mi Variable 3.5 mph - N/A   Partly Cloudy